This demonstration page uses our WeatherBlox Daily Observations layout. Learn more.

39.01783, -85.05884

Hourly Observations for June 14, 2019

Temp ( °F °C ) Dew Point ( °F °C ) Humidity (%) Winds ( mph kmh ) Pressure ( in mb ) Visibility ( mi km ) Precip ( " mm )
12:52 am 00:52 Mostly Clear 53 11.7 46 7.8 77 77 WSW 6 9 30.06 1018 10 16.09344 0 0
1:52 am 01:52 Clear 48 8.9 45 7.2 89 89 Calm 30.06 1018 10 16.09344 0 0
2:52 am 02:52 Clear 49 9.4 47 8.3 93 93 SSW 3 6 30.06 1018 10 16.09344 0 0
3:52 am 03:52 Clear 48 8.9 46 7.8 93 93 Calm 30.06 1018 10 16.09344 0 0
4:52 am 04:52 Clear 48 8.9 45 7.2 89 89 Calm 30.09 1019 10 16.09344 0 0
5:52 am 05:52 Clear 51 10.6 46 7.8 83 83 SSW 8 13 30.12 1020 10 16.09344 0 0
6:52 am 06:52 Sunny 50 10 46 7.8 86 86 SSW 6 9 30.12 1020 10 16.09344 0 0
7:52 am 07:52 Sunny 55 12.8 47 8.3 74 74 SW 9 15 30.15 1021 10 16.09344 0 0
8:52 am 08:52 Mostly Sunny 59 15 48 8.9 67 67 SW 8 13 30.15 1021 10 16.09344 0 0
9:52 am 09:52 Mostly Sunny 65 18.3 47 8.3 52 52 SW 9 15 30.15 1021 10 16.09344 0 0
10:52 am 10:52 Mostly Sunny 68 20 47 8.3 47 47 SSW 9 15 30.15 1021 10 16.09344 0 0
11:52 am 11:52 Mostly Sunny 70 21.1 45 7.2 41 41 SSW 7 11 30.15 1021 10 16.09344 0 0
12:52 pm 12:52 Partly Cloudy 71 21.7 43 6.1 36 36 S 14 22 30.15 1021 10 16.09344 0 0
1:52 pm 13:52 Partly Cloudy 73 22.8 43 6.1 34 34 SSW 10 17 30.12 1020 10 16.09344 0 0
2:52 pm 14:52 Mostly Cloudy 74 23.3 43 6.1 33 33 SSW 9 15 30.09 1019 10 16.09344 0 0
3:52 pm 15:52 Cloudy 74 23.3 43 6.1 33 33 SSW 10 17 30.06 1018 10 16.09344 0 0
4:52 pm 16:52 Mostly Cloudy 75 23.9 44 6.7 33 33 SSW 12 19 30.03 1017 10 16.09344 0 0
5:52 pm 17:52 Cloudy 73 22.8 45 7.2 37 37 SW 13 20 30.03 1017 10 16.09344 0 0
6:52 pm 18:52 Cloudy 71 21.7 47 8.3 42 42 SSW 8 13 30.03 1017 10 16.09344 0 0
7:52 pm 19:52 Cloudy 69 20.6 51 10.6 53 53 S 8 13 30.03 1017 10 16.09344 0 0
8:52 pm 20:52 Cloudy 65 18.3 51 10.6 61 61 S 8 13 30 1016 10 16.09344 0 0
9:52 pm 21:52 Cloudy 65 18.3 51 10.6 61 61 S 6 9 30 1016 10 16.09344 0 0
10:52 pm 22:52 Cloudy 66 18.9 51 10.6 59 59 S 6 9 30 1016 10 16.09344 0 0
11:52 pm 23:52 Cloudy 65 18.3 51 10.6 61 61 SSW 6 9 30 1016 10 16.09344 0 0

Powered by AerisWeather